Location: Oberstdorf
(47.4188°N, 10.2969°E)
Time: 12:33:05
(UTC+02:00)

ISS - Visible Passes

Search period start: 13 May 2021 00:00
Search period end: 23 May 2021 00:00
Orbit: 417 x 422 km, 51.6° (Epoch: 13 May)

Date Brightness Start Highest point End Pass type
(mag) Time Alt. Az. Time Alt. Az. Time Alt. Az.
13 May -0.8 00:32:06 10° ENE 00:32:06 10° ENE 00:32:07 10° ENE visible
13 May -2.4 02:05:02 33° NW 02:05:51 39° N 02:09:03 10° ENE visible
13 May -3.1 03:39:42 10° WNW 03:43:02 56° NNE 03:46:23 10° E visible
14 May -2.4 01:18:38 40° N 01:18:38 40° N 01:21:32 10° ENE visible
14 May -2.7 02:52:15 10° WNW 02:55:31 46° NNE 02:58:48 10° E visible
14 May -3.7 04:29:06 10° WNW 04:32:25 55° SSW 04:35:44 10° SE visible
14 May -3.6 22:50:40 10° SW 22:53:55 49° SSE 22:55:35 24° E visible
15 May -2.8 00:27:30 10° W 00:30:47 48° NNW 00:34:04 10° ENE visible
15 May -2.4 02:04:46 10° WNW 02:07:59 40° N 02:11:13 10° E visible
15 May -3.9 03:41:38 10° WNW 03:45:01 81° SSW 03:48:24 10° ESE visible
15 May -3.1 22:03:32 10° SSW 22:06:34 32° SE 22:09:37 10° ENE visible
15 May -3.2 23:39:56 10° W 23:43:16 60° NNW 23:46:37 10° ENE visible
16 May -2.3 01:17:14 10° WNW 01:20:26 38° N 01:23:38 10° ENE visible
16 May -3.6 02:54:11 10° WNW 02:57:34 73° NNE 03:00:57 10° ESE visible
16 May -2.6 04:31:21 10° W 04:34:08 24° SW 04:36:54 10° SSE visible
16 May -3.7 22:52:25 10° WSW 22:55:47 79° NNW 22:59:10 10° ENE visible
17 May -2.3 00:29:41 10° WNW 00:32:53 38° N 00:36:06 10° ENE visible
17 May -3.1 02:06:45 10° WNW 02:10:05 56° NNE 02:13:25 10° E visible
17 May -3.2 03:43:41 10° WNW 03:46:49 36° SW 03:49:57 10° SSE visible
17 May -3.9 22:05:00 10° WSW 22:08:21 74° SSE 22:11:43 10° ENE visible
17 May -2.5 23:42:07 10° W 23:45:20 41° N 23:48:35 10° ENE visible
18 May -2.7 01:19:17 10° WNW 01:22:34 46° NNE 01:22:56 44° NE visible
18 May -2.7 22:54:32 10° W 22:57:48 48° NNW 23:01:06 10° ENE visible
19 May -2.4 00:31:48 10° WNW 00:35:01 40° N 00:36:32 25° ENE visible
19 May -1.4 02:08:39 10° WNW 02:09:26 16° WNW 02:09:26 16° WNW visible
19 May -3.1 22:06:57 10° W 22:10:17 59° NNW 22:13:39 10° ENE visible
19 May -2.3 23:44:17 10° WNW 23:47:28 38° N 23:50:21 12° ENE visible
20 May -2.4 01:21:13 10° WNW 01:23:17 34° WNW 01:23:17 34° WNW visible
20 May -2.3 22:56:43 10° WNW 22:59:55 38° N 23:03:06 10° ENE visible
21 May -3.2 00:33:46 10° WNW 00:37:06 56° NNE 00:37:12 56° NNE visible
21 May -2.4 22:09:08 10° W 22:12:21 41° N 22:15:35 10° ENE visible
21 May -2.8 23:46:18 10° WNW 23:49:34 46° NNE 23:51:10 25° ENE visible
22 May -1.5 01:23:09 10° WNW 01:24:06 17° WNW 01:24:06 17° WNW visible
22 May -2.5 22:58:48 10° WNW 23:02:02 40° N 23:05:10 10° E visible
